Location: Unspecified
(43.8044°N, 11.0278°E)
Time: 14:06:10
(UTC+02:00)

Resurs 1-4 Rocket - Visible Passes

Search period start: 27 April 2015 00:00
Search period end: 07 May 2015 00:00
Orbit: 799 x 815 km, 98.4° (Epoch: 26 April)

Date Brightness Start Highest point End Pass type
(mag) Time Alt. Az. Time Alt. Az. Time Alt. Az.
27 Apr 3.0 04:27:44 10° NNE 04:32:48 46° E 04:37:53 10° S visible
28 Apr 3.9 04:03:40 10° NE 04:08:08 28° E 04:12:42 10° SSE visible
29 Apr 4.5 03:40:02 10° NE 03:43:22 17° E 03:46:54 10° SE visible
29 Apr 2.2 05:18:32 10° N 05:23:46 64° WNW 05:28:59 10° SSW visible
30 Apr 2.2 04:54:00 10° NNE 04:59:19 80° ESE 05:04:37 10° S visible
01 May 3.0 04:29:39 10° NNE 04:34:46 49° E 04:39:53 10° S visible
02 May 3.8 04:05:33 10° NE 04:10:07 30° E 04:14:45 10° SSE visible
03 May 4.5 03:41:51 10° NE 03:45:21 18° E 03:49:02 10° SE visible
03 May 2.2 05:20:30 10° N 05:25:43 61° WNW 05:30:55 10° SSW visible
04 May 4.9 03:19:37 10° ENE 03:20:27 10° E 03:21:40 10° E visible
04 May 2.2 04:55:57 10° NNE 05:01:16 84° E 05:06:35 10° SSW visible
05 May 2.9 04:31:34 10° NNE 04:36:44 51° E 04:41:54 10° S visible
06 May 3.7 04:07:26 10° NNE 04:12:05 31° E 04:16:48 10° SSE visible
